Tracking 30986 objects as of 9-Jul-2025
HD Live streaming from Space Station
objects crossing your sky now

SL-12 R/B(2)

Track SL-12 R/B(2) now!


NORAD ID: 14595
Int'l Code: 1983-127F
Perigee: 18,898.5 km
Apogee: 19,242.5 km
Inclination: 66.4 °
Period: 673.1 minutes
Semi major axis: 25441 km
RCS: 2.0988 m2 (large)
Launch date: December 29, 1983
Source: Commonwealth of Independent States (former USSR) (CIS)
Launch site: TYURATAM MISSILE AND SPACE COMPLEX (TTMTR)

Note: This is a ROCKET BODY
Your satellite tracking list
Your tracking list is empty




NASA's NSSDC Master Catalog

Two Line Element Set (TLE):
1 14595U 83127F   25185.80591191 -.00000072  00000-0  00000-0 0  9990
2 14595  66.4167 335.4449 0067597 189.1653 162.4710  2.13938493263953
Source of the keplerian elements: AFSPC